Regional Weather Roundup
Issued by NWS

Home | Current Version | Previous Version | Graphics & Text | Print | Product List | Glossary On
Versions: 1 2 3 4 5 6 7 8 9 10 11 12 13 14 15 16 17 18 19 20 21 22 23 24 25 26 27 28 29 30 31 32 33 34 35 36 37 38 39 40 41 42 43 44 45 46 47 48 49 50
000
ASUS44 KMEG 102310
RWRTN
TENNESSEE HOURLY STATE WEATHER ROUNDUP
NATIONAL WEATHER SERVICE MEMPHIS TN
500 PM CST SUN DEC 10 2017

TNZ002-004-019-021-049-052-054-088>092-110000-
WEST TENNESSEE

CITY           SKY/WX    TMP DP  RH WIND       PRES   REMARKS
MEMPHIS INTL   PTCLDY    50  29  44 SW12G21   30.17F
NWS MEMPHIS      N/A     50 N/A N/A MISG        N/A
JACKSON        CLEAR     48  25  40 SW8       30.15S
DYERSBURG      CLEAR     50  29  44 SW8G16    30.13S
SOMERVILLE     CLEAR     48  27  43 S8        30.16R
COVINGTON      CLEAR     48  28  46 SW10      30.15S
UNION CITY     CLEAR     48  28  46 SW13      30.10F
BOLIVAR        CLEAR     48  25  40 S3        30.16S
PARIS          CLEAR     43  25  49 SW12      30.10S
HUNTINGDON     CLEAR     46  25  42 SW7       30.11S
LEXINGTON      CLEAR     45  23  42 S8        30.14S
SAVANNAH       CLEAR     46  23  39 S6        30.16S
$$

TNZ008-025-027-028-033-062-065-066-110000-
NORTH MIDDLE TENNESSEE

CITY           SKY/WX    TMP DP  RH WIND       PRES   REMARKS
NASHVILLE      PTCLDY    46  18  32 SW8       30.12R
PORTLAND       CLEAR     43  19  39 S9        30.07S
CLARKSVILLE    CLEAR     45  20  36 SW9       30.09R
SMYRNA         CLEAR     44  21  40 S6        30.13F
COOKEVILLE     PTCLDY    39  23  52 SW8G16    30.11S WCI  34
GALLATIN       CLEAR     45  19  36 S6        30.12R
CROSSVILLE     CLOUDY    38  14  37 VRB5      30.09F WCI  34
$$

TNZ061-075-076-078-094-096-097-110000-
SOUTH MIDDLE TENNESSEE

CITY           SKY/WX    TMP DP  RH WIND       PRES   REMARKS
FAYETTEVILLE   CLEAR     45  21  39 S8        30.15F
TULLAHOMA      CLEAR     41  21  45 S8        30.13F
WINCHESTER     CLEAR     39  21  48 S6        30.17F WCI  35
MCMINNVILLE    CLEAR     39  23  52 SW8       30.12F WCI  34
COLUMBIA       CLEAR     43  21  42 S9        30.12S
SHELBYVILLE    CLEAR     41  21  45 S9        30.14F
$$

TNZ017-018-042-046-047-110000-
NORTHEAST TENNESSEE

CITY           SKY/WX    TMP DP  RH WIND       PRES   REMARKS
TRI CITIES     PTCLDY    32  19  58 SW7       30.11F WCI  26
ELIZABETHTON   CLEAR     30  23  74 NW3       30.11F
$$

TNZ012-013-036-069-073-074-110000-
CENTRAL EAST TENNESSEE

CITY           SKY/WX    TMP DP  RH WIND       PRES   REMARKS
KNOXVILLE      PTCLDY    37  24  59 SW12      30.13F WCI  29
OAK RIDGE      CLEAR     41  22  46 VRB6      30.14F
DOWNTOWN KNOXV CLEAR     39  21  48 SW6       30.14F WCI  35
GATLINBURG     CLEAR     37  19  48 CALM      30.14F
MORRISTOWN     CLEAR     36  19  51 SW6       30.11F WCI  31
JACKSBORO      CLEAR     39  19  45 S6        30.13F WCI  35
$$

TNZ083-085-099-110000-
SOUTHEAST TENNESSEE

CITY           SKY/WX    TMP DP  RH WIND       PRES   REMARKS
CHATTANOOGA    PTCLDY    41  20  43 SW8       30.19F
DAYTON         PTCLDY    41  23  48 S7        30.15F
$$

SKY/WX REPORTED AS FAIR MEANS FEW OR NO CLOUDS BELOW
12 THOUSAND FEET.





USA.gov is the U.S. government's official web portal to all federal, state and local government web resources and services.